STARLINK-32371, 60916

Orbit data source: Space-Track

STARLINK-32371, 60916 is a payload satellite owned by SpaceX/Seattle (US) in LEO that was launched on Sat, 31 Aug 2024 UTC via an FALCON 9 launch vehicle from the Air Force Eastern Test Range (AFETR). Payload-class satellites include a variety of spacecraft equipped with specific instruments for various scientific and technological missions. These include communications satellites like Starlink; space stations such as the ISS; scientific satellites like the Hubble; Earth observation satellites from companies like Planet Labs, Umbra, and HawkEye 360; GPS; miniature CubeSats for education and research; and military/defense satellites.

Loading next visibility...
Identifier
60916, 2024-154P
Orbit
LEO
Country
Flag of USUS
Related business
Manufacturer
SpaceX/Seattle
Mission
Operational Commercial Communications
Bus & Motor
STARLINK V2M, Unknown motor
Mass
730 kg wet, ~700 kg dry
Launch date (UTC)
2024-08-31 (2 years ago)
Launch vehicle
FALCON 9
Launch site
Air Force Eastern Test Range (AFETR)
Object type
Payload
Rocket body
Debris
Shape & HBR
Box + 2 Pan, 17.7 m
Radar Cross Section
33.884 m², Large (>1 m²)

Expand to show TLE details & history
Last TLE update: 11 hours ago

TLE from 11 hours ago
0 STARLINK-32371
1 60916U 24154P   26130.01194601 -.00001025  00000-0 -22472-4 0  9993
2 60916  53.1612 359.0046 0001450 139.5837 220.5272 15.30194077 95725
Epoch: 2026-05-10T00:17Z
TLE epoch observation values (Epoch: 2026-05-10T00:17:12.135Z)
Latitude
0.00002°
Longitude
126.8829°
Altitude
476.888 km
Speed
7.628 km/s
True Right ascension
23h 56m 01s
True Declination
0° 00' 00"
Sunlit
Object was in daylight at epoch
Visualization orbit readout
Latitude
Unknown
Longitude
Unknown
Altitude
Unknown
Speed
Unknown
Apparent Right ascension
Unknown
Apparent Declination
Unknown
Sunlit
N/A
Visualization observer readout
Local Sidereal Time
19:51:04
Azimuth
Unknown
Elevation
Unknown
Doppler factor
Unknown
Orbital elements
Apogee altitude
476.483 km
Perigee altitude
474.495 km
Semi-major axis
6,853.626 km
Eccentricity
0.00015
Inclination
53.1612°
RAAN
359.0046°
Arg. of periapsis
139.5837°
True anomaly
220.5164°
Mean anomaly
220.5272°
Eccentric anomaly
220.5218°
Mean motion
3.82527 °/min
Orbital period
94.11 mins
BSTAR
-0.000022472
Loading maneuver chart data...
Computing Atmospheric mass density...
Loading historical data...
Loading historical data...
Loading historical data...
Loading historical data...
Loading historical data...
Loading historical data...
Loading historical data...

Documentation

Showing up to 5 results
|